GFSSGP_925_rhum_024.txt.gz
RH
98 96 92 96 99 95 91 72 58 63 62 67 59 63 76 89 79 89 94 86 76 79 79 79 79 90 86 83 63 63 66 59 62 71 72 95 94 95 95 94 92 89 86 92 94 96 95 74 69
92 96 89 92 91 92 82 71 66 60 68 63 64 71 79 90 82 96 97 84 76 77 79 79 79 86 88 76 64 71 85 65 69 65 80 95 95 95 93 93 95 83 84 86 85 94 82 75 73
96 80 90 89 91 88 74 66 69 64 60 59 70 65 73 92 85 91 89 83 77 79 78 78 84 85 91 73 87 91 79 72 76 95 94 82 91 96 81 93 94 88 86 93 94 95 86 74 70
82 88 91 84 74 67 62 65 60 68 60 63 69 88 79 77 81 88 90 83 77 80 77 85 91 93 93 91 97 93 75 65 83 72 69 84 95 82 84 92 97 96 91 96 95 93 77 73 71
81 88 85 84 68 58 55 56 59 62 61 65 67 90 92 81 81 93 94 86 78 82 81 93 86 92 94 94 96 95 84 78 72 69 72 90 88 88 81 81 90 96 96 93 82 72 72 70 72
84 90 84 72 53 46 54 56 59 66 70 72 75 81 92 90 92 95 93 86 80 82 84 89 85 92 94 88 80 80 74 86 68 62 69 76 80 78 77 76 86 95 94 86 67 66 66 67 68
70 82 71 60 59 56 57 53 67 67 66 70 61 91 93 86 92 93 88 86 84 86 84 82 90 94 94 85 81 68 70 68 67 64 63 71 75 75 75 75 75 77 80 67 68 68 66 68 68
80 69 64 65 64 55 55 53 59 58 63 53 61 91 95 83 89 88 86 85 84 84 83 84 87 92 89 89 80 67 62 61 60 63 66 71 75 77 80 75 69 64 65 66 66 68 67 66 68
66 74 71 52 54 46 55 61 53 51 60 56 57 69 65 83 87 92 95 94 94 93 88 86 84 88 80 74 84 85 70 61 57 64 63 63 65 71 73 72 63 60 60 60 64 64 63 62 60
84 78 57 41 39 52 54 56 56 61 61 63 65 64 74 79 88 95 96 96 99 98 91 81 82 80 76 73 77 83 76 71 57 56 59 64 70 74 74 68 62 57 58 58 62 61 64 64 63
74 80 50 34 31 45 53 53 49 62 68 66 77 76 73 78 84 90 92 93 95 90 86 82 78 75 74 74 73 87 72 66 58 53 56 61 65 67 64 67 63 58 48 56 64 66 64 62 56
57 48 51 35 34 46 54 50 54 52 57 50 62 67 71 78 82 86 89 88 91 93 82 79 78 77 74 69 73 77 71 65 56 50 51 58 67 69 68 64 62 55 54 61 61 64 67 60 58
53 44 31 25 26 44 45 50 51 56 51 52 58 66 71 76 79 81 83 86 87 91 86 81 84 82 78 71 72 70 64 59 52 51 51 54 63 65 68 64 62 61 61 61 60 63 63 66 63
19 28 24 18 21 26 47 48 48 50 52 56 63 68 68 70 76 77 80 84 85 84 83 78 80 80 82 78 72 59 54 51 51 49 51 61 67 65 66 64 65 67 62 66 64 61 66 64 58
16 19 18 19 18 26 39 54 56 51 53 61 63 64 66 65 68 72 75 79 81 81 76 75 72 73 77 74 67 54 50 51 51 47 51 64 67 66 68 65 66 66 67 66 58 66 67 56 47
15 16 19 15 19 23 42 55 51 52 58 64 61 62 64 64 63 65 70 73 76 76 77 71 70 72 71 65 61 50 52 50 48 48 55 63 64 65 67 68 67 69 66 66 66 69 71 68 51
22 24 21 17 16 24 44 47 45 50 58 64 63 63 62 64 62 63 66 70 72 72 72 75 75 77 70 63 57 49 49 51 49 54 58 62 63 65 65 68 67 71 70 71 71 74 71 64 50
25 22 19 17 17 33 48 37 46 53 59 63 62 63 63 63 62 60 63 67 69 68 68 68 74 72 69 66 58 54 59 66 62 61 63 65 64 64 66 68 72 69 73 73 73 76 70 51 52
20 19 18 16 16 32 37 38 62 54 57 62 62 63 63 61 57 56 58 62 66 70 72 72 74 73 76 78 76 73 75 74 73 63 58 59 57 60 66 68 73 69 69 71 73 72 65 55 55
18 20 21 14 14 14 21 35 56 56 58 57 60 62 62 60 59 57 56 57 61 68 69 72 68 70 72 68 69 75 72 69 69 61 59 58 57 60 66 66 69 67 70 72 73 71 62 51 59
22 21 19 17 14 18 34 40 41 54 54 55 56 56 57 59 60 59 58 56 56 64 70 71 68 69 66 66 74 80 79 74 68 67 62 60 59 60 65 66 70 68 73 73 73 70 63 49 63
28 18 15 15 16 20 30 41 45 54 60 55 56 59 57 57 55 56 56 57 56 58 65 69 72 74 69 68 75 76 78 79 72 68 65 61 60 61 64 67 72 69 73 72 71 72 64 49 58
21 16 16 15 16 17 21 35 35 55 70 61 52 50 54 53 53 55 54 53 55 55 61 67 68 67 69 70 70 70 77 74 68 67 63 61 58 62 63 67 69 71 73 68 70 75 65 49 56
17 15 18 22 24 28 22 25 28 57 51 57 50 47 47 46 47 48 48 50 51 52 58 65 73 72 70 71 72 70 74 72 70 66 65 60 57 61 63 66 67 71 74 66 68 77 65 54 56
17 23 32 27 30 25 21 27 17 28 34 37 46 45 44 44 44 44 46 49 49 52 57 66 73 77 76 72 72 71 68 69 65 63 59 59 62 65 65 67 67 72 72 68 70 71 63 58 54
22 24 36 32 31 23 24 25 22 15 31 28 27 30 35 40 42 42 43 45 47 51 57 65 72 76 77 77 74 70 68 70 66 62 56 52 53 59 59 65 66 68 72 71 73 67 61 58 57
21 22 19 23 23 25 25 22 15 19 19 31 30 28 31 32 37 40 40 41 44 48 53 63 70 75 77 77 76 75 72 72 72 68 58 55 54 54 59 60 63 69 72 73 73 68 65 59 60
16 17 22 27 28 29 25 20 23 24 21 25 35 34 30 29 32 34 36 37 39 44 51 59 65 70 73 77 78 76 72 70 70 68 63 59 56 57 56 57 64 69 73 74 76 72 69 62 61
20 18 20 20 27 28 28 23 19 17 23 18 24 30 28 28 30 30 32 33 36 37 46 55 63 67 70 79 79 77 79 78 76 72 64 59 58 59 62 57 62 66 72 74 78 75 72 63 61
15 17 19 22 24 23 25 19 13 14 12 23 22 29 33 32 32 31 29 30 32 36 39 52 59 63 66 74 80 80 78 80 80 76 68 61 61 62 63 58 63 66 67 72 72 75 74 66 61

GFSSGP_925_rhum_030.txt.gz
RH
94 87 89 81 97 68 58 54 36 43 42 38 38 40 46 60 69 89 80 78 88 91 91 87 85 79 74 76 83 82 77 77 81 90 95 95 85 88 94 93 96 96 96 95 96 94 93 92 94
77 90 76 59 79 64 51 41 43 41 42 39 42 44 47 78 70 82 76 73 79 78 82 81 86 82 82 86 88 82 92 86 87 93 95 92 91 88 94 82 94 92 96 95 93 92 88 88 80
75 73 61 62 48 51 47 40 41 43 40 40 48 43 49 78 70 78 68 68 70 76 75 84 89 88 93 91 80 76 90 93 91 93 94 94 96 93 86 73 78 90 94 93 91 84 82 70 68
70 58 52 64 38 38 36 36 39 48 44 41 42 57 56 58 65 67 67 66 66 69 67 85 94 95 93 93 88 92 93 93 95 94 95 96 96 94 83 78 80 92 85 81 80 78 82 73 72
57 54 49 39 33 34 33 34 39 40 42 44 43 66 82 68 65 66 66 60 58 62 66 78 87 85 88 92 92 93 95 94 94 93 96 96 95 95 86 82 89 84 76 72 69 70 70 70 72
69 42 38 28 30 34 34 35 35 37 43 48 50 58 80 64 68 63 61 57 55 59 59 71 82 83 78 91 94 93 93 86 94 92 96 96 94 94 94 90 93 87 72 68 66 67 69 68 69
51 35 34 29 33 32 36 32 35 37 42 44 42 58 65 61 65 61 56 55 54 56 53 62 68 83 83 88 93 93 94 86 93 93 86 84 80 87 83 83 86 89 84 76 71 71 71 69 67
42 37 34 32 32 34 34 33 33 34 42 36 39 57 72 61 60 56 54 56 56 53 52 56 61 69 72 80 94 93 92 90 79 78 75 72 74 77 73 68 68 83 73 70 66 64 66 64 66
44 39 31 28 29 31 31 35 34 32 40 37 38 39 47 61 57 54 55 57 61 55 51 53 56 64 68 68 79 87 86 83 69 65 70 72 68 70 67 70 67 69 64 64 57 57 62 61 56
44 34 26 22 21 23 30 31 36 35 37 39 42 40 54 58 58 54 54 58 64 62 50 49 52 58 64 59 70 70 64 58 61 62 71 66 72 74 68 69 63 63 60 62 56 60 58 49 39
37 32 23 20 20 21 29 32 31 32 36 35 46 50 51 56 56 53 52 54 59 58 50 51 55 61 61 57 64 62 59 57 64 75 76 73 72 73 65 64 61 64 57 59 63 63 57 50 42
38 27 24 21 19 21 26 27 31 31 27 28 36 43 48 51 48 48 49 51 52 55 52 52 57 65 62 60 61 57 56 57 54 57 77 76 68 69 70 61 64 64 58 64 61 60 63 56 54
36 24 21 21 19 16 17 27 28 31 28 28 34 42 45 45 46 46 47 48 50 53 55 56 61 69 68 68 57 54 57 57 51 58 66 68 65 70 68 69 63 67 63 59 65 61 62 67 63
19 23 21 16 13 13 14 22 26 26 28 32 37 40 40 42 43 45 46 47 49 52 53 56 62 71 73 70 70 65 64 57 58 53 55 73 69 73 66 64 62 62 63 63 70 70 69 60 57
18 14 11 10 10 12 12 20 24 22 32 36 36 38 39 39 42 44 46 47 50 51 52 55 62 68 74 76 78 73 61 59 55 53 62 70 76 78 82 70 66 62 70 74 74 68 62 54 48
13 12 14 12 10 10 12 18 17 21 32 37 37 37 38 39 39 43 45 45 47 49 53 58 59 62 72 72 76 67 61 60 54 50 56 69 75 82 80 72 67 66 74 71 70 65 58 48 51
12 16 16 14 10 11 13 16 14 19 28 33 37 36 37 39 39 41 43 45 45 51 56 62 63 62 68 75 72 71 65 64 52 50 55 63 74 77 81 68 65 77 66 68 68 61 60 50 48
15 14 14 16 12 11 14 16 14 22 25 29 35 36 37 38 39 40 43 45 50 54 59 66 67 66 72 73 77 68 60 59 54 52 54 61 71 74 80 68 71 70 63 63 66 66 62 55 51
11 12 14 13 11 12 14 14 14 18 25 26 33 36 36 36 34 38 43 45 49 53 60 66 69 71 76 74 70 63 56 53 53 54 60 68 75 78 82 69 72 73 70 73 73 68 69 52 56
12 12 12 12 10 12 14 15 13 16 25 26 31 33 35 34 34 37 40 43 46 51 57 66 70 73 80 72 67 57 52 49 51 53 61 72 73 79 80 73 67 72 64 78 79 75 56 54 45
12 13 12 12 11 11 12 14 14 13 22 25 25 28 29 33 35 36 38 40 42 47 56 63 72 74 80 68 69 68 58 56 56 54 62 70 76 76 82 67 68 76 70 63 80 78 69 48 49
13 10 10 10 12 16 11 18 14 13 18 22 24 27 28 32 33 33 35 39 41 45 52 60 70 76 80 78 64 66 56 51 50 53 56 59 73 72 74 72 75 83 67 69 82 76 68 70 44
11 7 9 10 11 13 13 15 14 12 14 16 18 22 26 26 31 33 34 36 39 43 49 57 67 75 74 81 66 70 65 51 48 50 54 68 69 74 69 76 81 82 77 74 82 82 82 67 44
10 9 10 11 10 14 13 14 14 13 16 14 15 19 24 26 28 30 33 34 37 41 47 52 65 76 78 79 82 73 68 60 50 54 54 57 59 64 72 73 80 82 77 79 82 87 84 74 60
12 13 15 15 13 13 10 13 14 10 10 12 13 14 22 25 27 29 33 35 36 39 45 50 60 74 76 76 77 78 75 72 64 62 62 55 53 51 56 76 79 76 84 77 81 89 79 83 71
13 12 11 16 10 9 9 12 11 9 9 9 11 10 15 22 25 27 31 34 38 39 45 49 56 69 74 74 78 80 80 69 69 66 56 58 52 52 55 70 74 77 76 81 82 82 80 74 76
14 14 8 8 10 10 7 8 8 9 9 10 9 10 10 18 24 27 28 32 36 41 46 50 56 69 70 69 77 80 80 75 59 61 67 59 58 53 59 65 76 74 75 79 82 75 80 70 76
10 10 12 10 16 16 8 9 9 10 11 10 10 10 11 16 22 24 26 28 33 38 43 50 56 63 67 66 71 72 74 78 72 67 69 63 57 63 56 68 71 72 74 80 85 74 78 80 70
12 12 11 9 10 11 11 8 7 9 10 10 10 10 10 14 19 21 22 26 29 33 40 46 52 56 61 64 67 69 69 70 74 71 70 71 66 65 69 68 71 68 74 79 84 76 67 83 78
10 12 12 12 17 11 11 8 6 6 7 9 8 9 10 12 13 14 17 20 25 29 34 39 45 50 56 58 66 69 69 70 69 76 72 73 73 69 72 71 73 70 69 73 81 81 67 77 80

GFSSGP_925_rhum_033.txt.gz
RH
93 84 92 96 95 72 66 52 33 37 40 31 33 42 54 53 65 93 73 72 63 71 79 84 85 95 92 88 86 85 86 91 94 92 95 91 80 93 95 95 96 96 95 95 95 92 92 93 94
76 78 82 76 96 81 58 40 47 39 35 33 33 35 40 70 54 70 85 63 80 76 72 66 83 87 92 86 89 89 93 94 88 88 81 78 80 94 94 95 93 96 96 93 92 91 91 88 88
71 60 72 66 64 89 56 38 35 34 32 37 39 40 46 66 55 67 66 70 79 74 67 74 82 84 90 88 90 89 94 94 92 94 84 79 80 73 91 92 94 93 95 94 90 90 88 82 84
72 59 49 85 81 38 38 41 32 35 31 31 38 53 51 58 57 62 65 67 77 73 61 80 91 92 92 96 93 87 94 93 92 96 95 95 82 78 94 89 93 87 91 90 90 87 87 85 83
51 43 70 86 34 30 30 29 29 39 32 33 37 56 68 58 56 60 60 63 62 60 65 80 89 91 90 94 90 95 94 90 95 96 95 95 95 93 95 89 90 89 88 89 88 88 87 83 83
65 45 64 50 29 27 27 25 30 32 31 36 46 59 66 59 58 57 57 54 58 63 56 78 93 84 88 95 94 94 95 94 96 96 96 95 94 94 94 94 91 87 86 84 79 73 72 70 67
51 50 60 26 23 27 28 23 33 27 32 35 36 61 65 59 57 53 54 58 55 47 50 65 74 84 94 94 95 94 95 94 95 97 95 93 88 76 71 81 90 87 83 77 73 70 67 63 64
34 42 33 30 54 25 22 22 22 24 34 30 34 57 71 58 53 53 54 56 54 44 48 55 61 67 71 77 94 95 96 95 95 96 92 74 70 61 61 60 67 72 69 68 72 61 59 61 54
30 45 36 21 27 22 19 21 22 24 32 30 30 40 47 55 52 52 53 54 53 42 44 46 52 58 63 67 81 91 93 96 82 68 62 74 73 73 72 77 59 65 63 59 54 53 57 58 52
32 84 53 17 15 23 20 19 22 26 29 33 32 38 48 50 48 49 53 55 50 40 39 40 46 51 55 52 73 69 65 61 64 67 61 78 68 66 63 62 57 59 59 55 52 57 60 62 59
26 54 52 17 16 18 19 20 18 22 28 30 39 44 43 46 44 48 53 55 48 38 37 39 44 50 50 47 56 54 50 49 54 63 65 66 60 64 63 61 60 64 56 61 71 70 60 42 41
27 24 31 16 15 16 19 18 21 19 19 24 32 38 40 43 38 44 48 50 48 40 37 38 44 50 48 48 49 46 44 45 46 54 72 66 64 55 73 61 57 56 54 58 66 60 58 62 51
24 21 18 17 15 14 16 20 24 22 18 21 30 36 39 40 39 38 39 42 44 41 38 39 45 53 53 54 47 43 43 44 42 50 64 57 59 59 60 60 58 60 58 60 60 56 58 58 51
18 20 18 16 15 13 14 18 20 22 20 24 31 35 36 37 35 36 36 37 39 39 39 41 48 58 60 58 55 49 47 44 45 44 50 69 58 60 58 57 59 58 63 70 62 63 63 58 52
18 18 18 17 14 12 12 17 21 19 23 27 30 33 34 34 34 35 35 36 37 39 40 43 49 58 64 64 64 59 50 47 45 45 51 64 66 69 72 63 58 58 65 66 68 65 63 50 47
19 18 18 13 12 11 12 17 15 16 23 28 29 30 32 33 32 35 36 36 37 39 43 46 48 53 64 63 65 59 50 47 45 43 48 63 69 75 71 64 56 63 64 54 58 50 45 46 38
13 18 17 13 11 11 12 14 13 15 20 25 28 29 29 31 31 34 35 37 38 41 45 48 49 49 58 63 63 62 53 52 46 42 44 62 67 72 74 67 68 64 60 56 49 56 48 40 39
15 14 13 15 12 11 12 13 14 14 18 22 27 28 29 29 30 32 34 36 37 41 45 51 52 52 58 63 67 59 52 53 48 43 42 59 66 70 74 62 65 62 60 60 67 62 48 45 41
12 11 12 12 11 12 13 13 13 13 16 19 25 28 29 29 27 29 33 35 36 40 46 53 56 58 61 63 62 56 52 50 47 44 45 54 62 68 73 65 67 64 64 64 64 61 58 47 44
14 12 11 10 10 12 13 13 11 11 15 17 22 25 27 27 28 28 32 32 35 40 48 56 62 65 68 64 60 53 50 44 44 44 48 57 64 69 72 70 67 65 72 69 75 66 60 42 39
11 12 11 11 10 10 12 14 13 11 12 16 18 22 23 26 28 30 31 32 34 39 48 57 66 68 71 62 62 59 52 48 44 44 48 58 67 67 72 73 64 66 65 69 75 68 57 43 40
9 8 9 10 11 15 11 18 14 12 12 17 17 21 22 24 26 29 29 31 32 37 46 55 68 71 74 73 58 58 53 46 43 45 44 50 63 65 67 67 67 72 61 65 72 65 60 49 40
8 6 8 9 11 11 11 14 13 11 12 13 16 18 19 21 24 26 29 30 31 34 42 51 67 73 69 75 65 59 58 45 44 42 44 50 61 67 62 68 67 71 73 59 68 73 74 57 47
7 7 7 7 8 14 12 12 13 11 11 11 12 14 16 18 21 25 27 29 30 32 37 47 63 75 76 77 73 66 58 52 44 44 43 48 52 62 67 63 71 76 72 65 74 77 78 73 51
9 9 12 11 11 12 9 11 12 9 8 9 10 12 12 15 19 24 26 28 31 31 36 43 59 73 78 77 77 76 69 67 58 50 46 44 45 45 54 65 70 72 76 68 69 81 74 78 66
10 9 10 16 11 9 8 11 10 8 7 7 9 9 11 14 17 21 25 28 31 33 38 43 54 70 77 77 76 79 74 65 62 56 47 48 43 42 43 67 68 71 70 75 71 74 76 70 75
11 11 7 7 7 7 6 7 6 6 7 8 9 9 10 13 16 19 22 26 30 33 39 43 50 64 74 73 76 78 82 73 60 59 59 55 52 42 46 58 70 69 70 71 73 70 76 66 74
9 8 10 8 13 12 8 8 8 9 9 8 9 10 9 10 14 17 20 24 28 32 36 43 48 60 68 67 74 77 78 80 70 64 64 59 54 53 50 54 61 71 70 72 75 66 69 74 65
10 10 10 8 8 10 12 8 5 7 8 9 8 9 9 9 12 16 20 22 26 30 33 40 46 54 64 66 67 68 73 74 78 68 66 66 64 60 56 61 64 68 71 72 76 70 60 75 76
8 10 11 12 15 8 8 9 5 5 6 7 8 8 8 9 10 15 18 19 22 26 30 35 40 46 58 61 64 67 66 70 72 75 67 67 67 66 66 64 69 70 70 70 75 78 58 68 76

GFSSGP_925_rhum_036.txt.gz
RH
96 87 87 88 97 87 92 74 69 70 48 36 47 61 63 52 60 78 86 73 66 88 92 88 89 81 84 86 85 85 81 81 86 81 80 89 91 92 94 95 95 94 95 95 92 93 94 94 95
74 78 83 88 99 93 77 46 49 41 35 35 41 44 50 72 51 81 78 73 68 79 72 80 85 86 85 84 84 87 90 91 76 80 78 78 94 94 95 95 95 96 94 93 93 92 90 89 93
66 70 89 90 92 83 55 41 38 34 32 36 41 40 47 74 60 65 62 64 73 66 58 81 82 86 86 81 87 86 88 87 78 78 80 88 92 93 92 94 94 95 94 91 91 90 88 86 85
63 63 62 92 86 49 47 66 30 36 35 35 40 61 54 54 57 48 50 58 64 65 62 71 76 91 84 85 89 90 93 95 93 92 91 96 95 94 93 93 91 93 92 92 92 90 89 86 83
64 68 93 85 72 41 34 32 29 31 33 40 42 64 68 54 50 49 53 55 58 70 80 81 83 87 86 88 90 93 95 96 95 95 96 94 94 95 95 91 90 90 90 87 88 90 77 76 67
85 94 93 87 64 31 26 24 29 35 36 44 55 66 72 55 53 55 55 62 64 64 72 88 87 88 87 92 93 92 95 96 96 96 95 94 95 94 93 90 88 86 80 75 70 69 64 62 59
73 97 85 59 33 31 28 26 34 26 32 47 46 67 69 57 56 54 63 56 62 52 66 82 90 95 93 90 95 96 94 95 94 96 92 82 78 71 71 77 85 84 81 71 63 62 62 58 57
47 96 89 76 27 26 22 22 25 29 34 33 43 66 74 59 55 57 52 59 48 47 62 72 80 84 84 91 96 96 96 94 96 95 88 88 79 77 56 59 68 67 64 57 62 64 64 66 54
31 64 69 50 28 23 17 22 24 24 30 30 38 50 53 55 53 54 54 55 47 48 54 59 64 72 72 77 89 94 96 87 84 67 76 73 80 76 76 75 56 60 58 52 59 62 59 62 66
33 87 66 42 37 33 19 20 23 26 28 40 46 48 52 52 53 58 60 52 46 45 46 50 54 62 67 63 72 81 80 80 77 77 45 68 72 68 69 61 54 56 56 56 53 53 69 61 68
30 46 33 29 25 20 19 18 18 23 29 39 51 51 47 49 49 55 53 46 48 41 40 45 51 54 55 56 60 68 65 62 61 65 50 65 82 67 64 59 58 56 58 62 42 53 66 60 62
28 44 35 28 22 20 28 34 17 20 25 32 40 42 44 47 49 47 50 45 45 36 37 41 50 51 50 53 50 55 51 51 55 59 62 80 56 68 50 65 65 70 66 62 61 60 56 47 42
22 46 32 28 21 26 33 40 30 20 23 28 36 40 43 45 48 49 47 45 42 37 36 42 49 48 48 54 46 47 44 44 44 55 53 64 59 71 58 68 61 59 70 71 69 64 60 55 49
19 23 24 24 16 13 16 31 32 18 20 28 36 39 38 38 44 46 46 46 44 37 35 45 52 47 55 52 51 48 43 42 44 45 53 61 69 64 68 62 59 65 64 58 63 64 61 57 51
16 20 18 18 15 14 11 16 22 23 22 28 34 37 37 35 37 39 42 44 45 40 36 45 54 53 58 55 59 55 49 46 42 48 54 60 60 63 61 63 62 62 64 65 63 48 58 50 43
18 20 23 17 16 13 11 16 16 23 23 29 31 33 36 34 30 33 35 37 42 38 38 44 44 55 57 63 61 60 54 46 45 43 50 61 65 74 72 66 68 53 60 58 56 64 56 42 47
19 24 23 19 15 13 12 14 14 19 22 28 29 30 32 35 31 32 30 32 33 37 41 46 43 54 61 64 66 62 57 52 46 43 46 53 66 72 73 64 61 67 64 62 56 54 52 49 39
22 18 18 19 13 12 12 12 14 15 21 26 28 28 30 32 31 31 30 31 34 40 45 46 47 53 61 64 64 65 60 53 50 45 42 55 62 69 70 70 63 64 64 56 52 54 45 44 39
16 13 14 13 12 12 13 12 16 16 28 23 26 29 29 29 28 31 32 33 34 41 50 49 51 51 63 66 70 66 61 55 52 48 43 56 59 67 70 69 70 66 64 66 60 60 54 53 40
18 16 12 10 10 12 13 12 12 14 21 20 23 26 27 27 27 31 32 33 34 41 49 54 54 55 63 65 68 63 57 52 52 47 46 53 58 65 70 70 68 67 61 67 66 67 59 46 38
18 18 14 11 9 11 14 15 14 12 14 16 20 22 24 27 27 31 33 32 34 42 49 56 58 62 66 64 64 60 56 51 50 47 46 50 56 64 70 70 68 66 68 70 60 59 60 48 38
15 13 12 12 11 14 14 19 18 12 12 15 16 20 22 25 27 29 32 33 34 40 48 56 61 64 70 64 64 64 60 55 50 46 47 52 55 65 70 68 72 68 65 68 70 63 62 51 40
9 7 10 10 11 11 11 14 14 13 14 14 15 18 21 22 24 29 30 32 32 37 49 58 66 68 73 69 68 63 61 55 48 47 46 47 56 62 67 69 67 68 65 69 66 69 57 58 53
6 6 6 7 9 15 12 12 15 13 15 13 13 15 20 20 23 28 29 31 32 35 46 56 70 73 74 78 65 70 63 57 51 46 47 50 62 66 66 69 67 68 68 71 64 68 72 66 54
7 8 12 13 12 14 10 12 13 9 10 11 11 14 18 19 22 26 32 32 33 34 43 51 69 77 77 78 78 65 72 58 58 48 44 51 54 66 69 64 72 71 65 71 72 70 76 62 67
8 8 11 18 14 10 9 12 12 9 7 7 8 11 13 16 17 24 31 32 34 34 40 48 64 76 79 76 81 73 77 71 55 62 51 46 49 52 56 56 66 72 68 68 72 74 75 78 67
9 10 6 8 8 8 7 8 6 7 8 8 7 9 12 14 15 22 27 30 34 33 39 45 58 73 78 79 80 83 71 76 70 60 55 54 45 47 44 54 66 66 71 76 70 73 78 71 74
8 7 10 9 16 16 10 11 10 10 10 9 9 8 10 12 14 19 24 28 32 33 36 42 52 68 75 78 78 81 81 77 72 63 59 55 55 45 49 57 62 71 70 75 74 76 69 72 76
9 10 10 8 9 12 13 8 7 12 10 10 9 9 10 11 14 17 23 25 31 33 35 40 46 60 71 75 78 77 79 80 75 72 64 65 55 60 48 68 67 69 74 74 76 76 71 73 72
8 10 11 13 18 10 11 9 6 8 9 9 8 9 10 11 15 16 19 23 27 32 34 39 43 50 65 72 75 76 76 77 80 75 70 69 68 58 64 55 62 71 71 75 77 79 72 70 78